Regional Weather Roundup
Issued by NWS

Home | Current Version | Previous Version | Graphics & Text | Print | Product List | Glossary On
Versions: 1 2 3 4 5 6 7 8 9 10 11 12 13 14 15 16 17 18 19 20 21 22 23 24 25 26 27 28 29 30 31 32 33 34 35 36 37 38 39 40 41 42 43 44 45 46 47 48 49 50
000
ASUS43 KTOP 190208
RWRKS

WEATHER ROUNDUP FOR KANSAS
NATIONAL WEATHER SERVICE GOODLAND KS
900 PM CDT THU SEP 18 2014

NOTE:  "FAIR" INDICATES FEW OR NO CLOUDS BELOW 12,000 FEET WITH NO
SIGNIFICANT WEATHER AND/OR OBSTRUCTIONS TO VISIBILITY.

KSZ001>006-013>018-027>032-041>047-190300-
NORTHWEST KANSAS

CITY           SKY/WX    TMP DP  RH WIND       PRES   REMARKS
GOODLAND       CLEAR     69  56  62 S10       29.92R
HAYS           CLEAR     75  61  60 S13       29.89R
HILL CITY      CLEAR     68  64  87 CALM      29.88R
RUSSELL        CLEAR     74  62  66 SE13      29.88R
$$

KSZ061>065-074>080-084>089-190300-
SOUTHWEST KANSAS

CITY           SKY/WX    TMP DP  RH WIND       PRES   REMARKS
DODGE CITY     CLEAR     76  61  59 S12       29.94R
ELKHART          N/A     69  59  70 S9          N/A
GARDEN CITY    CLEAR     73  57  57 SE8       29.94R
GREAT BEND     CLEAR     75  61  60 S9        29.91R
LIBERAL        CLEAR     73  55  53 S12       29.98R
PRATT          CLEAR     77  59  53 SE6       29.94R
$$

KSZ066>073-081>083-090>101-190300-
SOUTHEAST KANSAS

CITY           SKY/WX    TMP DP  RH WIND       PRES   REMARKS
CHANUTE        CLEAR     70  65  84 E9        29.98R
COFFEYVILLE    CLEAR     69  65  86 E8        29.96R
HUTCHINSON     CLEAR     72  62  71 SE13      29.95R
MEDICINE LODGE   N/A     79  62  56 SE6       29.92R
NEWTON         CLEAR     70  61  73 SE13      29.98S
PARSONS        CLEAR     69  65  86 SE3       29.98R
WICHITA INTL   CLEAR     72  62  71 E13       29.95R
WICHITA JABRA  CLEAR     70  63  78 SE12      29.96R
WICHITA MCCONL CLEAR     71  66  86 E12       29.96R
WINFIELD       CLEAR     70  64  81 E9        29.97R
$$

KSZ007>012-019>026-033>040-048>060-102>105-190300-
NORTHEAST KANSAS

CITY           SKY/WX    TMP DP  RH WIND       PRES   REMARKS
CONCORDIA      CLEAR     68  65  90 SE15G23   29.93R
EMPORIA        CLEAR     66  64  93 E12       29.98R
LAWRENCE       CLEAR     61  59  93 E3        30.01R FOG
MANHATTAN      CLOUDY    68  63  84 E12       29.96R
MARYSVILLE     CLOUDY    63  61  94 SE13G18   29.97R
OLATHE IND     CLEAR     63  62  97 E6        30.01R
OLATHE EXE     CLEAR     63  62  97 E7        30.00R
SALINA         CLEAR     74  66  76 SE14      29.93R
TOPEKA BILLARD CLEAR     64  62  93 E3        30.00R
TOPEKA FORBES  CLEAR     63  60  90 E3        30.00R
$$


USA.gov is the U.S. government's official web portal to all federal, state and local government web resources and services.